Location: Limoges
(45.8354°N, 1.2645°E)
Time: 12:43:22
(UTC+01:00)

Vanguard 2 Rocket - Visible Passes

Search period start: 22 February 2024 00:00
Search period end: 03 March 2024 00:00
Orbit: 554 x 3310 km, 32.9° (Epoch: 22 February)

Date Brightness Start Highest point End Pass type
(mag) Time Alt. Az. Time Alt. Az. Time Alt. Az.
22 Feb 10.1 19:58:12 10° W 20:13:24 46° SSW 20:30:47 12° SE visible
22 Feb 10.4 22:14:39 10° W 22:29:00 28° SW 22:36:26 22° S visible
23 Feb 10.0 18:55:52 10° WSW 19:09:45 49° S 19:28:27 10° ESE visible
23 Feb 10.3 21:10:48 10° W 21:25:41 34° SSW 21:38:31 17° SSE visible
23 Feb 10.8 23:32:23 10° WSW 23:40:11 14° SW 23:44:10 13° SW visible
24 Feb 10.2 20:07:47 10° W 20:22:12 40° SSW 20:39:52 10° SE visible
24 Feb 10.7 22:25:25 10° W 22:37:22 21° SW 22:46:20 15° SSW visible
25 Feb 10.1 19:05:23 10° W 19:18:41 45° SSW 19:36:44 10° SE visible
25 Feb 10.6 21:20:56 10° W 21:34:15 27° SW 21:48:36 11° SSE visible
26 Feb 10.4 20:17:37 10° W 20:30:57 33° SSW 20:47:23 10° SSE visible
26 Feb 10.9 22:37:58 10° WSW 22:45:46 14° SW 22:53:52 10° SSW visible
27 Feb 10.3 19:15:03 10° W 19:27:36 38° SSW 19:44:38 10° SE visible
27 Feb 10.8 21:31:47 10° WSW 21:42:49 20° SW 21:55:09 10° S visible
28 Feb 10.6 20:27:50 10° W 20:39:42 26° SSW 20:54:11 10° SSE visible
29 Feb 10.5 19:24:58 10° W 19:36:31 31° SSW 19:51:59 10° SSE visible
29 Feb 11.0 21:44:34 10° WSW 21:51:25 13° SW 21:58:49 10° SSW visible
01 Mar 10.9 20:38:53 10° WSW 20:48:28 19° SW 20:59:49 10° S visible
02 Mar 10.7 19:35:21 10° WSW 19:45:28 24° SSW 19:58:35 10° SSE visible
